Theta_e
308 309 311 310 311 297 302 303 298 301 306 303 300 303 302 304 299 292 303 300 300 302 305 307 309 310 312 313 313 316 328 329 329 331 334 335 335 335 337 338 339 340 341 342 342 342 345 348 349 351 352 353 353 353 353 353 353 354 354 355 355 354 354
309 311 312 311 312 310 303 299 302 307 309 306 300 292 296 293 289 292 298 296 295 296 293 305 305 307 309 311 312 311 326 327 326 330 333 333 333 333 336 338 340 341 341 341 342 343 345 348 349 350 352 353 354 354 354 353 353 353 354 355 355 355 354
309 311 311 308 311 313 305 303 309 302 294 294 297 300 290 289 289 290 295 298 297 298 298 303 304 305 306 308 310 311 318 325 325 328 330 332 333 334 335 337 338 340 341 341 342 343 346 348 349 351 353 354 355 355 355 355 354 354 355 356 356 356 356
308 308 307 299 304 310 311 310 306 308 302 297 294 297 299 296 291 292 292 296 292 301 302 304 305 306 307 307 308 310 311 325 326 327 329 331 332 333 335 337 338 340 342 343 343 344 347 349 349 351 353 354 354 356 356 355 356 356 356 356 356 355 356
307 300 304 302 303 302 304 303 301 303 302 304 302 301 297 295 293 292 292 292 299 304 308 307 306 307 308 309 310 310 311 324 325 328 330 332 332 333 335 336 337 339 341 343 344 346 347 349 351 352 353 353 354 356 356 357 355 355 355 356 356 356 357
301 302 307 308 307 307 305 303 300 301 299 296 294 291 301 299 295 289 293 292 302 306 313 310 309 310 310 310 310 314 312 324 326 328 330 333 331 333 334 336 338 339 341 343 344 345 349 351 351 351 353 353 354 355 356 357 357 356 356 356 356 356 357
302 306 309 311 311 310 308 306 303 304 302 300 295 287 293 298 298 301 300 295 298 311 313 312 312 312 312 312 312 313 314 323 328 329 329 333 332 333 334 335 337 338 340 342 345 345 346 351 352 352 353 353 353 355 356 357 357 357 357 357 357 357 357
307 309 310 310 311 310 307 307 307 305 301 302 299 297 300 296 297 294 295 295 298 308 314 315 313 312 313 313 313 312 313 325 328 329 328 332 333 333 334 335 336 337 338 340 343 346 348 351 352 352 353 353 354 355 356 357 357 358 358 358 358 357 357
297 301 305 305 309 309 305 304 305 306 305 305 304 303 304 297 297 297 293 289 296 309 317 311 312 312 313 312 313 314 311 322 328 329 329 331 332 333 333 334 334 336 338 340 341 344 348 351 353 353 353 353 354 354 356 357 359 360 360 360 358 358 357
289 290 291 294 298 302 305 306 305 306 305 303 302 297 299 290 300 300 295 295 302 309 314 313 310 310 311 312 313 314 313 317 328 329 329 329 332 332 332 333 334 335 339 342 346 347 349 352 353 353 353 353 354 354 355 358 360 361 361 362 360 358 358
294 298 302 308 307 303 301 303 305 304 305 305 303 300 298 292 300 298 298 302 303 308 308 311 309 309 310 312 311 314 313 314 321 328 330 329 330 332 332 333 335 339 343 345 349 350 351 352 353 354 354 354 354 354 354 357 360 361 362 362 361 359 358
302 304 304 307 309 303 303 303 303 305 304 304 302 299 297 303 300 291 303 308 304 306 308 312 311 308 311 313 310 321 326 330 332 327 330 338 330 332 333 333 336 339 342 344 349 351 352 352 353 355 355 355 355 354 354 357 360 362 363 362 361 360 358
301 303 305 307 307 307 305 304 304 304 304 303 301 302 305 306 298 295 305 307 306 307 308 310 315 312 312 311 319 325 326 327 329 328 329 329 329 330 331 330 335 338 340 343 348 351 352 353 353 355 356 356 356 356 356 357 359 361 362 362 361 360 359
300 302 304 306 305 306 307 307 305 305 304 303 303 303 306 306 305 308 313 308 310 309 309 310 311 314 313 318 323 323 323 325 327 328 328 329 330 336 332 330 334 337 340 343 348 351 352 352 353 355 356 356 356 356 357 357 358 360 362 361 360 360 359
298 303 304 306 306 305 304 307 307 307 305 304 304 304 304 308 306 306 313 313 309 312 311 313 318 316 316 317 317 317 317 321 325 325 326 331 336 342 340 338 340 341 344 347 349 351 352 352 352 354 356 357 357 358 358 358 358 359 361 360 360 360 359
294 301 305 304 305 305 304 306 305 305 304 302 303 302 304 304 304 305 307 305 307 309 313 316 315 315 316 317 317 315 315 318 318 320 329 330 333 339 344 348 352 353 354 354 353 353 353 353 352 353 355 357 357 357 358 359 359 360 360 360 360 359 360
292 298 301 303 304 301 299 301 304 308 307 306 306 306 307 306 308 304 302 304 310 312 316 314 313 315 315 315 317 318 319 320 320 319 325 327 330 335 339 344 348 351 354 356 356 355 355 354 353 354 355 356 356 357 358 360 360 359 359 360 360 360 360
290 295 297 304 298 291 293 309 309 313 307 306 304 303 305 306 308 306 308 311 315 314 312 312 312 314 313 314 317 319 319 317 316 317 321 329 332 337 340 342 343 344 347 352 355 356 356 356 357 356 356 355 357 358 359 360 359 359 358 359 360 360 360
289 294 297 297 291 293 307 309 311 313 310 308 308 307 308 307 308 310 310 313 314 317 317 318 315 316 317 320 320 319 323 320 318 318 320 318 329 337 338 338 345 342 341 347 351 352 353 355 354 354 355 356 357 356 358 358 358 358 358 357 359 360 360
293 295 296 289 293 304 308 308 310 312 311 310 308 306 309 310 311 313 310 312 312 315 315 316 316 317 317 318 318 317 324 337 338 339 339 327 320 325 342 351 350 349 352 353 356 356 357 356 353 353 352 355 357 356 358 358 357 357 357 356 357 361 360
288 290 293 294 303 301 304 305 307 306 306 305 304 300 307 316 318 314 314 314 314 315 315 317 317 316 316 313 313 320 335 340 341 342 345 348 349 350 352 355 354 352 351 351 354 354 350 351 352 353 352 353 356 356 356 357 357 356 356 355 355 361 361
292 288 289 293 294 291 299 308 309 311 313 312 311 308 308 317 320 323 315 313 313 313 314 314 315 316 313 311 320 337 343 345 344 345 347 347 346 346 346 346 350 353 354 354 356 356 355 355 354 354 357 354 352 354 354 354 356 356 355 354 355 357 362
289 289 287 289 290 296 301 306 310 312 312 312 312 308 305 314 317 323 323 321 321 321 317 314 314 313 314 316 321 334 343 345 346 345 345 345 344 345 348 348 347 350 352 355 355 352 347 346 348 350 356 357 355 353 355 354 354 355 355 354 354 354 359
290 290 287 288 297 298 303 308 311 312 314 313 308 298 301 313 316 323 323 321 320 321 322 323 321 318 316 318 324 331 338 344 345 344 343 343 343 342 344 352 351 350 352 353 354 352 356 356 358 355 352 354 358 357 354 354 352 352 354 355 355 355 358
290 291 289 292 296 304 305 309 312 314 316 311 301 295 308 314 319 323 323 321 321 321 320 321 318 321 324 325 329 334 338 341 343 345 345 344 344 343 345 350 356 349 349 353 354 355 356 358 357 357 360 358 352 356 357 353 351 352 353 355 357 356 359
287 289 288 290 298 304 307 310 312 315 311 300 299 313 316 317 319 322 322 321 322 321 319 319 320 323 325 328 330 332 334 338 342 343 343 343 343 344 345 350 351 346 349 349 352 353 355 357 359 360 358 354 357 354 355 356 354 353 355 357 358 357 359
291 291 288 287 284 302 308 309 309 312 305 304 313 315 317 319 319 320 320 321 321 322 321 324 325 326 326 326 327 329 331 333 336 341 341 341 340 341 341 341 346 347 345 351 354 354 355 355 357 360 359 356 357 358 357 358 359 358 359 359 359 358 359
287 288 287 288 305 306 308 306 301 307 311 316 319 315 313 317 317 317 318 318 319 322 323 324 325 326 326 327 328 329 331 332 336 338 340 340 340 342 344 344 344 349 346 350 349 352 357 356 357 359 359 356 356 357 358 362 363 362 365 361 360 358 357
292 292 296 304 303 307 307 307 307 308 311 314 315 315 314 312 313 317 316 315 318 320 323 324 324 324 327 327 330 330 331 334 335 337 338 339 340 341 342 347 351 350 348 348 348 351 352 353 356 359 361 357 356 355 359 364 363 363 367 363 360 358 357
301 300 301 307 309 307 305 308 309 308 309 314 315 313 311 312 314 315 314 315 317 319 322 322 324 325 326 328 329 331 332 333 334 336 338 340 341 343 345 347 348 348 349 350 351 351 352 353 355 362 358 356 356 359 364 365 364 362 367 364 360 358 358
293 289 303 305 307 306 306 307 309 309 310 311 314 312 312 312 314 314 315 315 316 317 320 320 321 324 328 327 327 329 330 331 333 336 338 340 341 344 344 348 352 348 348 349 349 350 350 351 352 355 356 357 356 358 361 363 363 362 363 363 361 360 359
292 293 299 302 304 305 307 307 306 307 309 313 312 312 313 316 315 315 315 316 315 316 317 318 319 322 326 327 326 327 329 330 332 335 337 339 340 344 346 348 349 348 347 347 346 346 347 349 351 354 357 357 359 359 361 363 365 365 363 362 361 360 360
296 298 300 303 304 303 305 308 309 309 310 312 310 311 313 313 313 313 314 315 315 316 315 316 318 320 323 326 327 328 329 330 332 336 337 339 340 342 344 345 350 345 345 346 345 346 345 346 348 350 353 356 359 361 364 365 366 361 360 361 362 361 361
291 291 295 302 297 297 303 306 305 306 308 310 309 311 310 312 313 313 311 313 317 317 316 315 315 319 321 324 326 327 329 331 334 336 337 338 340 343 345 346 345 344 347 345 343 343 344 346 347 348 349 351 356 359 362 365 365 359 358 359 359 360 361
290 298 301 302 303 303 306 306 308 310 312 309 309 309 309 310 312 316 314 314 315 315 315 317 316 317 320 321 325 327 329 331 334 337 337 338 339 342 345 344 344 342 342 344 343 343 343 345 345 347 347 350 351 352 356 359 361 360 358 357 357 359 360
299 301 301 302 301 299 302 305 307 309 310 309 309 310 311 312 311 313 314 315 314 313 314 316 319 319 319 321 325 327 329 331 332 333 336 338 340 343 344 344 342 340 340 342 342 341 342 344 346 345 347 349 351 351 354 356 357 355 352 350 349 350 353
297 302 302 303 303 303 305 305 306 308 310 311 308 308 309 310 313 313 311 312 315 315 314 316 320 323 323 324 325 326 328 330 333 336 340 340 341 342 343 344 342 341 341 342 342 343 343 344 344 345 346 348 348 348 349 353 353 349 348 347 346 345 346
Wind_Speed
14 16 14 12 11 9 10 9 15 11 6 6 1 0 3 0 0 6 2 4 8 5 8 5 11 10 15 16 13 7 24 24 23 20 21 21 20 19 18 19 17 19 17 17 18 19 16 17 17 18 19 20 20 19 19 20 19 18 19 19 18 18 17
22 13 15 14 13 5 8 14 11 4 1 5 3 3 3 6 6 5 8 9 5 10 8 7 5 11 13 18 19 8 21 27 26 22 22 21 20 19 20 19 18 20 20 20 19 19 20 20 22 20 20 17 16 17 18 19 19 20 19 19 17 16 17
18 17 13 16 14 16 10 11 10 11 8 13 6 2 5 6 7 4 9 13 8 13 8 9 17 13 13 14 16 14 15 19 21 21 22 22 21 18 17 17 16 17 18 19 19 20 21 22 21 19 16 16 15 15 17 18 20 20 20 17 16 14 15
14 15 12 14 15 16 14 8 13 9 3 7 6 7 0 3 3 6 4 10 8 10 10 16 20 20 17 11 13 18 14 23 19 18 19 19 19 18 17 18 17 18 19 21 21 21 21 20 19 17 18 17 19 18 18 18 17 16 16 16 15 15 15
15 14 10 15 16 16 15 10 8 11 6 4 2 4 7 3 2 3 3 4 3 5 10 17 17 19 15 13 11 12 14 23 21 20 21 18 19 17 17 18 18 18 19 19 20 20 20 18 17 17 17 20 19 17 18 18 20 20 20 19 17 16 15
12 13 14 14 16 15 12 11 7 12 12 7 13 5 5 7 2 2 3 4 5 6 3 10 16 15 15 13 12 8 12 19 22 20 24 23 20 18 18 17 16 17 16 18 18 16 15 17 19 20 19 17 18 19 19 20 19 19 20 19 19 18 16
8 11 14 16 13 15 13 11 8 9 12 5 7 6 9 6 6 5 3 2 6 6 7 11 16 16 15 14 13 7 7 14 20 21 19 19 19 17 18 17 16 15 16 15 16 18 18 20 21 22 19 19 20 21 20 19 20 21 21 20 18 16 15
12 11 15 19 17 16 15 13 12 9 12 14 6 6 5 7 5 7 3 4 3 6 8 2 13 10 11 10 11 7 5 16 19 21 18 18 18 16 17 17 15 15 15 14 14 15 17 16 18 19 19 19 18 18 19 18 21 21 20 18 18 17 16
5 9 6 8 16 13 10 12 14 12 7 14 7 5 3 6 9 7 3 5 3 3 7 5 9 9 14 11 10 8 5 14 19 22 20 18 22 17 17 15 15 14 14 15 16 17 16 15 17 18 18 17 18 18 17 18 18 19 18 17 18 18 18
6 5 7 4 13 16 10 11 13 17 15 11 13 9 4 5 5 10 4 3 2 2 3 5 8 8 8 9 10 5 8 11 15 16 19 21 21 20 19 17 15 16 16 16 16 16 16 16 17 17 17 17 16 16 17 15 15 16 17 16 17 17 17
6 5 6 9 7 11 13 12 14 16 17 13 6 6 4 8 4 8 6 5 2 1 3 3 5 4 4 5 8 4 5 11 17 15 14 16 14 17 20 18 18 16 14 17 17 17 17 16 15 15 16 17 16 15 16 17 16 16 16 16 16 17 17
10 14 14 17 14 14 18 14 16 14 21 20 9 11 9 6 7 7 4 7 7 5 2 1 3 5 5 5 6 8 8 6 9 16 16 17 15 18 21 18 18 18 18 16 15 15 16 16 14 14 15 16 16 16 17 17 16 15 14 16 16 17 17
15 15 13 13 14 9 3 19 14 14 18 21 20 8 8 9 6 8 5 9 9 5 5 5 4 5 5 8 10 6 7 9 8 15 20 17 16 8 15 18 19 19 18 16 16 16 17 17 17 16 16 16 15 14 15 16 16 16 16 16 17 17 17
15 12 10 8 12 11 6 2 11 17 12 21 23 11 7 12 6 5 9 11 10 8 6 5 9 5 7 9 9 9 7 10 10 10 15 16 12 10 14 13 14 15 17 17 17 17 17 18 18 16 15 16 16 16 16 16 16 15 15 16 17 16 17
11 11 11 10 10 9 5 3 1 2 4 11 21 17 10 7 10 6 8 8 5 2 7 4 2 8 10 12 12 10 7 8 10 11 12 12 9 10 11 11 11 10 12 13 12 14 16 18 18 16 15 15 16 16 15 16 17 15 15 15 16 17 17
10 9 11 11 9 12 11 1 4 4 2 7 15 18 12 6 7 11 5 6 4 5 6 7 7 8 10 9 8 7 6 8 7 10 11 10 11 11 10 10 10 10 10 10 12 13 15 16 16 14 13 13 14 15 14 15 15 14 14 15 17 17 16
8 13 14 12 10 11 5 3 4 2 4 3 6 13 14 8 5 12 6 8 8 7 10 9 6 10 8 10 8 11 13 10 8 8 4 11 11 12 12 11 11 11 11 10 11 13 12 12 12 12 11 12 14 14 14 13 12 14 15 14 15 16 15
10 16 17 11 6 3 4 1 3 0 2 6 7 11 17 9 5 4 7 5 4 7 12 13 7 11 8 9 8 10 10 8 9 8 9 8 9 11 8 9 9 7 7 8 8 9 8 8 10 9 9 10 11 12 12 11 13 14 14 13 13 14 14
7 12 11 3 4 5 3 7 3 2 4 6 2 7 3 6 9 3 9 9 6 6 7 9 9 9 8 12 11 11 9 6 5 6 8 11 7 6 6 6 4 5 7 6 6 5 6 6 5 5 5 6 6 7 9 12 12 13 14 14 11 12 14
6 3 6 1 2 5 8 8 7 7 5 1 4 7 8 13 13 2 9 16 8 9 12 11 6 11 14 12 9 11 15 14 14 15 11 7 4 4 7 8 7 7 8 8 6 4 1 5 6 6 7 6 7 7 7 10 11 12 12 13 11 11 13
3 7 6 6 4 6 4 4 4 3 3 4 6 4 14 24 18 12 4 8 15 11 11 10 9 11 15 13 10 14 16 15 15 14 14 16 18 15 12 11 9 7 8 8 5 4 3 4 3 3 5 7 8 7 7 7 9 10 10 12 12 10 12
5 7 7 4 0 1 4 4 5 3 5 8 3 6 16 22 24 22 9 8 10 13 13 11 11 12 15 12 10 11 13 14 14 14 15 15 14 13 11 9 9 9 7 6 6 6 5 5 3 2 1 4 7 8 8 7 7 9 10 12 12 10 11
7 6 3 2 1 1 6 13 12 15 4 4 4 11 14 16 19 19 20 18 14 11 7 10 9 12 12 8 7 8 11 13 12 13 13 12 11 10 10 8 8 6 5 4 3 4 3 3 5 4 1 1 3 7 9 9 9 9 11 11 11 11 9
5 5 2 3 2 5 16 17 16 11 14 5 8 8 7 15 17 17 17 19 19 17 18 18 16 11 10 8 4 5 9 11 12 12 12 12 11 9 7 6 6 5 3 3 4 4 2 0 3 4 3 0 2 4 7 8 10 11 12 11 9 7 7
6 7 5 4 3 6 16 15 20 17 9 5 11 5 3 13 11 14 15 18 17 15 15 12 12 8 8 7 7 10 11 12 13 13 13 12 11 11 12 10 9 8 7 6 5 4 4 4 3 4 5 3 2 3 4 5 10 13 10 6 7 8 8
5 5 6 5 1 5 15 7 15 16 7 8 7 1 7 7 10 11 13 14 14 14 14 11 9 9 8 9 11 13 14 13 13 11 10 9 9 10 9 10 7 6 6 5 6 7 5 6 6 6 5 5 4 3 4 7 11 6 5 7 8 8 9
4 3 5 3 4 8 17 13 13 18 10 4 1 4 4 10 11 13 13 14 13 11 11 11 10 11 12 13 13 12 13 12 10 8 9 9 9 8 7 8 8 7 6 6 4 4 5 4 5 5 4 4 4 5 5 7 6 6 7 7 8 9 9
4 2 2 1 3 7 12 14 7 6 9 6 2 3 7 10 11 12 10 13 13 14 9 10 10 11 11 13 12 11 11 9 8 8 7 7 6 6 7 5 4 5 6 4 5 5 3 4 4 4 5 4 4 5 7 6 5 6 7 8 8 9 9
3 2 2 1 3 4 9 10 10 8 10 8 8 8 9 8 9 9 9 12 13 13 12 8 8 10 11 11 12 11 10 10 9 8 8 8 8 8 7 8 6 6 6 7 7 4 1 3 4 4 4 4 5 6 5 4 4 5 5 7 7 8 8
7 7 8 2 1 8 10 9 7 9 10 10 10 10 8 9 9 9 10 11 12 13 13 12 10 10 9 10 10 10 10 10 9 8 7 8 7 6 7 5 5 5 6 7 4 4 5 7 8 4 4 4 5 5 1 2 3 4 5 6 6 7 7
6 3 4 2 3 5 6 6 7 8 8 9 8 7 8 8 9 10 10 10 11 13 12 14 12 13 12 11 10 9 9 11 11 11 9 7 8 8 9 8 6 6 6 6 4 5 6 6 6 6 5 6 4 5 4 2 1 1 2 6 6 6 7
5 7 9 10 8 7 5 4 6 5 6 6 8 7 5 6 8 10 10 10 10 11 11 13 13 13 15 14 13 12 12 12 12 12 12 11 10 8 6 6 6 5 5 4 4 4 5 7 7 8 7 6 7 7 6 6 4 2 3 5 6 6 7
8 13 10 5 5 7 6 3 4 9 8 7 8 8 8 9 9 9 9 9 9 9 10 10 10 10 12 12 10 9 9 10 9 9 9 8 7 7 5 5 4 5 4 4 4 4 5 5 6 6 7 7 7 6 5 5 4 3 3 5 6 6 6
7 6 6 6 4 3 5 8 7 6 6 5 4 4 6 6 8 8 8 6 7 7 8 9 9 8 8 9 10 9 7 8 8 7 8 8 7 6 5 5 5 4 3 2 2 3 4 4 5 6 6 6 7 6 6 5 3 4 3 3 4 4 5
6 5 8 8 8 5 0 4 5 3 2 5 5 5 4 4 3 2 3 5 5 7 7 6 7 7 7 8 9 8 7 8 7 7 7 7 7 6 6 5 5 2 2 3 2 3 3 3 4 5 5 5 5 6 5 5 4 2 4 4 4 2 4
12 12 11 9 5 6 8 5 4 5 5 5 3 3 2 2 3 2 3 4 5 5 5 5 5 6 6 6 6 6 7 7 8 8 7 6 6 5 4 5 3 3 2 2 2 1 1 1 1 3 5 4 5 5 5 5 5 6 7 7 6 5 6
10 10 13 14 13 12 9 7 6 4 4 4 5 3 2 2 1 4 4 3 2 3 4 5 5 5 5 5 4 4 4 5 7 7 7 7 8 5 4 4 4 3 1 1 2 1 1 1 1 2 3 4 6 7 5 5 5 7 7 8 8 7 7
Wind_Direction
231 194 196 215 188 205 175 183 209 210 127 213 193 170 163 31 152 250 207 225 249 287 308 251 192 192 210 247 241 169 164 172 169 173 172 177 180 179 179 178 177 179 181 182 181 180 179 178 181 184 183 181 180 178 181 185 189 188 191 193 191 191 189
225 221 192 212 209 209 142 206 201 125 175 215 187 193 162 190 199 217 196 226 207 196 236 226 244 205 209 210 233 188 173 168 172 172 175 177 178 179 178 178 177 176 178 184 185 184 182 182 186 186 184 180 177 178 180 184 185 189 193 194 195 193 191
204 216 197 205 225 221 204 191 127 186 164 215 185 209 205 182 210 220 206 211 223 190 216 180 218 224 219 214 208 213 159 178 173 168 172 174 176 176 174 174 175 175 178 183 184 185 186 188 187 184 177 175 176 177 180 184 189 193 192 194 195 195 193
182 202 194 204 201 220 227 150 173 188 212 196 168 197 241 162 208 202 261 200 225 197 196 186 201 210 218 208 203 202 180 170 177 174 172 169 172 174 170 173 175 176 178 181 183 184 185 184 183 180 177 178 180 180 179 186 189 190 192 196 195 196 195
173 201 189 204 194 191 209 208 179 173 219 134 183 153 213 158 195 185 206 237 248 251 199 193 192 202 204 197 186 196 187 168 175 164 171 174 175 171 172 174 176 179 179 180 183 184 184 180 178 178 179 183 182 178 183 183 186 189 193 195 194 198 195
210 195 195 199 189 195 208 207 194 176 182 176 184 238 188 231 230 217 186 238 252 255 268 192 187 192 196 190 183 160 190 164 170 165 170 177 176 174 175 176 176 179 180 181 183 180 173 173 177 182 183 181 180 185 186 185 187 191 193 194 197 197 197
259 220 189 187 186 188 207 207 213 183 180 183 169 190 200 194 237 257 234 268 277 252 289 189 179 184 186 175 180 166 164 164 163 170 162 170 174 175 177 176 175 178 179 177 178 181 181 177 179 181 180 182 187 188 185 187 188 193 193 195 196 195 198
264 258 201 177 182 180 199 212 219 207 193 190 180 172 177 177 186 226 229 250 255 287 326 72 154 162 151 147 164 171 168 161 164 167 162 159 174 177 180 180 175 176 178 177 178 182 184 180 178 181 184 186 187 186 188 188 192 192 191 193 193 195 198
281 258 337 190 172 186 204 201 209 221 211 182 184 166 137 174 196 191 147 232 271 288 325 33 85 124 143 142 172 174 157 160 165 166 163 162 172 175 180 178 177 174 172 176 184 188 186 180 180 184 186 186 187 190 189 191 193 191 191 191 193 195 197
216 204 203 191 185 192 190 206 199 214 225 196 171 197 178 186 211 192 191 236 240 285 6 30 59 84 129 147 169 157 167 139 166 169 168 167 167 175 173 176 176 177 177 180 180 184 186 185 183 183 185 187 187 188 191 190 189 191 193 192 194 195 197
277 301 289 275 259 180 198 191 205 199 223 227 181 147 150 186 213 184 214 172 229 277 111 107 88 102 101 137 150 162 181 166 156 170 175 172 162 167 173 173 176 175 174 176 177 179 184 187 184 182 184 185 185 185 187 189 189 189 190 191 193 196 196
261 268 274 284 288 201 185 195 203 201 197 223 214 171 204 164 122 212 224 154 151 221 250 223 158 164 144 155 144 89 85 93 120 161 170 179 174 173 173 170 167 170 172 174 173 178 181 185 184 181 184 184 185 184 187 189 187 186 188 190 192 194 196
309 299 299 315 306 316 223 192 205 214 192 205 222 191 175 153 148 193 206 153 162 206 223 215 205 193 166 156 117 122 117 96 102 150 166 176 180 160 170 166 170 170 172 173 173 176 182 184 184 181 181 184 184 185 187 188 190 190 186 188 192 194 195
297 295 293 286 300 298 287 336 216 219 214 195 213 211 186 170 168 186 169 164 169 191 175 173 163 152 114 118 116 103 86 84 97 120 159 164 158 150 167 167 165 169 172 177 179 178 180 183 184 181 181 183 185 185 186 188 192 189 183 188 189 192 196
305 294 314 294 291 281 300 227 230 246 256 215 198 215 217 177 168 185 177 148 173 205 135 116 56 79 103 101 99 100 104 102 103 110 115 117 115 119 143 155 156 162 170 172 175 176 179 183 183 182 182 183 184 187 186 188 191 190 186 186 189 192 196
324 346 317 308 287 313 273 276 341 317 20 342 191 203 212 187 169 181 162 141 145 213 108 99 91 103 92 91 93 94 101 100 100 107 114 114 120 113 114 123 125 137 150 161 167 176 182 183 182 181 178 178 181 189 188 190 190 189 189 188 190 194 194
312 311 326 297 340 345 360 318 273 294 315 253 247 200 209 206 157 171 158 206 203 174 132 109 91 90 84 74 73 78 66 61 62 67 121 142 137 132 135 137 139 142 146 153 162 169 174 178 181 181 170 172 183 189 188 188 183 190 194 191 192 193 192
301 317 322 340 6 309 244 232 210 267 296 25 359 202 192 214 154 184 155 194 158 137 131 122 121 91 98 106 98 97 96 76 49 50 65 75 111 114 116 132 137 139 138 148 149 153 158 167 175 178 174 172 183 185 185 179 183 191 195 195 191 193 191
307 314 319 31 266 243 272 287 336 324 335 41 72 3 38 206 217 180 143 144 141 91 87 111 124 116 92 71 62 61 66 81 87 80 82 89 71 97 114 99 91 137 145 137 134 132 151 156 157 144 164 173 169 174 177 183 186 188 194 198 190 188 191
300 324 11 138 230 294 313 338 347 341 297 117 35 24 5 8 12 179 165 156 160 110 101 95 98 97 95 74 58 65 66 66 68 54 38 49 72 96 99 93 81 94 97 85 78 83 88 161 170 169 180 167 160 183 176 177 187 190 191 196 193 183 189
342 334 300 270 319 304 321 326 7 341 56 52 71 99 38 18 0 346 111 116 112 113 98 91 79 82 78 70 33 38 60 62 60 61 56 62 67 59 40 48 55 59 77 78 71 78 74 86 119 181 190 172 173 176 180 182 179 189 190 197 197 185 188
346 325 319 330 230 305 329 354 293 314 46 59 87 92 32 7 359 359 357 93 96 104 98 96 96 82 73 57 40 46 57 58 59 64 68 62 60 59 55 44 40 34 35 47 45 55 26 5 21 86 61 200 182 176 189 187 177 188 194 203 200 188 188
318 308 310 283 258 139 13 327 342 344 325 57 72 64 41 351 352 1 21 32 33 49 75 106 87 73 74 63 32 34 61 63 56 59 60 62 58 59 66 60 50 40 20 33 47 62 51 351 310 331 33 102 184 201 190 192 191 192 203 206 200 196 187
250 274 273 279 304 26 340 340 341 334 325 74 58 59 16 339 335 4 22 36 36 45 58 64 60 72 84 73 47 28 56 68 68 62 53 46 40 38 49 64 60 48 39 48 37 45 75 205 312 305 298 245 187 211 222 198 195 206 209 207 198 190 174
245 243 253 276 301 3 336 357 348 339 331 57 66 75 332 305 338 12 21 33 31 31 41 46 72 53 68 65 50 44 49 62 60 57 51 43 34 30 27 28 30 24 21 22 11 22 358 331 317 319 334 329 242 211 208 215 215 212 206 180 176 180 175
259 269 267 252 219 19 328 348 8 356 17 52 90 175 244 285 359 21 25 34 33 28 35 40 53 61 57 56 49 44 44 54 64 60 52 47 39 30 18 13 25 20 0 357 9 0 353 15 9 347 325 302 303 267 212 220 228 221 166 176 175 171 174
257 265 296 345 5 339 346 349 30 27 66 71 219 252 340 19 15 15 17 20 29 31 33 34 42 41 40 44 44 43 41 43 47 51 54 51 40 26 18 12 11 12 355 353 355 336 342 356 347 329 333 324 303 294 261 243 227 196 187 173 171 173 173
265 225 256 74 234 272 354 26 43 33 88 132 80 5 26 21 23 15 14 12 12 14 33 41 35 36 33 35 36 40 37 34 36 48 52 53 42 35 15 5 354 353 348 344 346 322 351 337 316 305 295 290 290 283 268 248 201 183 172 169 167 171 175
293 295 22 239 249 325 19 16 18 10 50 57 53 33 38 23 23 12 16 5 3 16 19 31 40 47 34 34 27 32 25 28 28 34 36 37 36 29 14 8 13 6 347 325 296 269 264 303 316 326 311 275 272 276 260 198 167 157 152 157 162 170 175
321 289 254 202 10 32 8 12 354 1 24 48 51 42 27 21 23 25 14 357 5 4 15 14 20 37 45 36 27 23 22 19 18 17 25 31 26 20 15 6 6 350 337 328 356 17 7 10 358 337 352 17 357 290 222 131 121 136 130 148 161 170 170
327 274 9 68 82 54 26 346 359 359 358 31 45 50 39 11 15 22 12 6 7 2 10 12 7 8 21 32 25 18 16 13 11 9 13 20 22 19 16 358 356 347 346 344 13 15 11 358 356 343 347 340 336 335 360 19 127 147 110 148 160 161 164
274 285 303 316 326 338 329 13 353 358 6 35 47 41 36 29 23 21 12 6 11 4 11 4 4 4 6 12 13 9 9 7 2 4 2 3 2 7 6 349 342 342 347 348 8 7 15 355 0 349 342 346 341 349 352 9 3 85 124 144 149 154 153
304 299 303 304 312 297 281 286 2 353 4 35 39 21 27 27 27 17 15 6 5 2 10 1 359 3 1 3 359 7 360 1 355 1 351 349 343 339 345 331 337 335 345 359 14 34 25 6 7 349 346 343 342 354 353 355 357 61 88 123 129 134 142
284 280 296 344 346 327 4 42 41 8 10 15 22 26 38 31 33 11 358 359 9 4 6 358 349 11 353 350 350 348 358 357 351 347 342 337 333 334 334 326 309 304 2 4 32 38 10 10 7 347 345 341 350 351 350 346 355 104 83 89 112 129 138
277 308 316 334 333 307 227 24 18 9 36 15 4 33 23 25 27 40 335 3 357 6 355 344 350 350 352 340 341 348 358 349 342 338 333 329 328 327 320 313 314 339 350 330 345 40 358 10 9 344 342 348 360 355 356 355 351 97 110 83 67 70 123
295 291 292 302 300 291 316 345 24 18 13 346 345 345 351 359 333 12 37 30 12 348 342 336 340 334 325 328 340 340 346 343 339 322 313 313 311 313 314 310 304 316 323 5 38 69 327 343 28 357 339 339 352 5 10 21 33 73 79 85 77 68 65
287 310 315 313 310 301 299 312 316 317 298 306 292 270 270 292 344 37 27 27 357 342 336 332 327 315 320 314 318 330 335 328 317 315 312 311 299 297 302 287 284 284 283 233 264 306 344 358 11 15 357 355 13 16 11 38 37 72 85 90 88 79 76